Year,Month,Day,Hour,Minute,Value (Times are PST for windspeed in km/hr)
2014,02,17,00,00,2.50
2014,02,17,00,01,5.30
2014,02,17,00,02,2.80
2014,02,17,00,03,4.00
2014,02,17,00,04,4.20
2014,02,17,00,05,3.40
2014,02,17,00,06,3.70
2014,02,17,00,07,4.70
2014,02,17,00,08,6.70
2014,02,17,00,09,3.10
2014,02,17,00,10,1.40
2014,02,17,00,11,1.30
2014,02,17,00,12,1.60
2014,02,17,00,13,2.90
2014,02,17,00,14,2.30
2014,02,17,00,15,1.50
2014,02,17,00,16,2.00
2014,02,17,00,17,1.60
2014,02,17,00,18,0.70
2014,02,17,00,19,0.30
2014,02,17,00,20,0.20
2014,02,17,00,21,1.60
2014,02,17,00,22,0.00
2014,02,17,00,23,1.60
2014,02,17,00,24,1.60
2014,02,17,00,25,2.30
2014,02,17,00,26,3.20
2014,02,17,00,27,6.10
2014,02,17,00,28,4.70
2014,02,17,00,29,3.60
2014,02,17,00,30,2.30
2014,02,17,00,31,2.90
2014,02,17,00,32,2.00
2014,02,17,00,33,0.20
2014,02,17,00,34,1.90
2014,02,17,00,35,1.30
2014,02,17,00,36,0.80
2014,02,17,00,37,1.50
2014,02,17,00,38,0.00
2014,02,17,00,39,2.00
2014,02,17,00,40,3.00
2014,02,17,00,41,5.40
2014,02,17,00,42,3.50
2014,02,17,00,43,0.50
2014,02,17,00,44,1.60
2014,02,17,00,45,0.00
2014,02,17,00,46,0.00
2014,02,17,00,47,0.20
2014,02,17,00,48,0.30
2014,02,17,00,49,0.10
2014,02,17,00,50,0.00
2014,02,17,00,51,0.00
2014,02,17,00,52,0.00
2014,02,17,00,53,0.10
2014,02,17,00,54,0.30
2014,02,17,00,55,3.50
2014,02,17,00,56,0.50
2014,02,17,00,57,4.20
2014,02,17,00,58,6.70
2014,02,17,00,59,5.60
2014,02,17,01,00,1.50
2014,02,17,01,01,4.20
2014,02,17,01,02,12.70
2014,02,17,01,03,11.90
2014,02,17,01,04,4.90
2014,02,17,01,05,4.00
2014,02,17,01,06,8.90
2014,02,17,01,07,8.00
2014,02,17,01,08,7.60
2014,02,17,01,09,7.80
2014,02,17,01,10,6.30
2014,02,17,01,11,5.20
2014,02,17,01,12,5.20
2014,02,17,01,13,4.00
2014,02,17,01,14,6.40
2014,02,17,01,15,10.10
2014,02,17,01,16,5.10
2014,02,17,01,17,4.70
2014,02,17,01,18,5.30
2014,02,17,01,19,8.00
2014,02,17,01,20,4.10
2014,02,17,01,21,6.40
2014,02,17,01,22,4.40
2014,02,17,01,23,6.00
2014,02,17,01,24,4.80
2014,02,17,01,25,9.20
2014,02,17,01,26,7.50
2014,02,17,01,27,7.20
2014,02,17,01,28,5.80
2014,02,17,01,29,6.00
2014,02,17,01,30,6.20
2014,02,17,01,31,10.10
2014,02,17,01,32,7.40
2014,02,17,01,33,5.50
2014,02,17,01,34,5.00
2014,02,17,01,35,3.40
2014,02,17,01,36,5.60
2014,02,17,01,37,3.80
2014,02,17,01,38,5.10
2014,02,17,01,39,6.40
2014,02,17,01,40,8.10
2014,02,17,01,41,8.20
2014,02,17,01,42,10.30
2014,02,17,01,43,9.70
2014,02,17,01,44,6.40
2014,02,17,01,45,6.50
2014,02,17,01,46,5.20
2014,02,17,01,47,8.10
2014,02,17,01,48,8.20
2014,02,17,01,49,6.90
2014,02,17,01,50,7.60
2014,02,17,01,51,11.80
2014,02,17,01,52,9.10
2014,02,17,01,53,10.70
2014,02,17,01,54,12.00
2014,02,17,01,55,9.90
2014,02,17,01,56,13.40
2014,02,17,01,57,10.20
2014,02,17,01,58,12.30
2014,02,17,01,59,9.40
2014,02,17,02,00,7.40
2014,02,17,02,01,9.80
2014,02,17,02,02,8.80
2014,02,17,02,03,9.90
2014,02,17,02,04,7.40
2014,02,17,02,05,7.20
2014,02,17,02,06,5.10
2014,02,17,02,07,4.80
2014,02,17,02,08,11.80
2014,02,17,02,09,6.90
2014,02,17,02,10,8.30
2014,02,17,02,11,6.00
2014,02,17,02,12,4.50
2014,02,17,02,13,7.20
2014,02,17,02,14,2.60
2014,02,17,02,15,6.80
2014,02,17,02,16,6.00
2014,02,17,02,17,4.70
2014,02,17,02,18,6.90
2014,02,17,02,19,10.00
2014,02,17,02,20,9.20
2014,02,17,02,21,8.60
2014,02,17,02,22,8.60
2014,02,17,02,23,9.10
2014,02,17,02,24,9.70
2014,02,17,02,25,7.50
2014,02,17,02,26,11.50
2014,02,17,02,27,4.90
2014,02,17,02,28,5.80
2014,02,17,02,29,7.80
2014,02,17,02,30,6.20
2014,02,17,02,31,3.70
2014,02,17,02,32,3.40
2014,02,17,02,33,7.30
2014,02,17,02,34,6.40
2014,02,17,02,35,6.40
2014,02,17,02,36,7.50
2014,02,17,02,37,5.30
2014,02,17,02,38,6.90
2014,02,17,02,39,7.30
2014,02,17,02,40,6.50
2014,02,17,02,41,7.20
2014,02,17,02,42,8.80
2014,02,17,02,43,5.40
2014,02,17,02,44,5.50
2014,02,17,02,45,7.20
2014,02,17,02,46,7.70
2014,02,17,02,47,3.50
2014,02,17,02,48,5.10
2014,02,17,02,49,7.00
2014,02,17,02,50,3.40
2014,02,17,02,51,5.50
2014,02,17,02,52,5.70
2014,02,17,02,53,5.70
2014,02,17,02,54,4.10
2014,02,17,02,55,2.60
2014,02,17,02,56,3.00
2014,02,17,02,57,3.20
2014,02,17,02,58,4.70
2014,02,17,02,59,5.30
2014,02,17,03,00,4.90
2014,02,17,03,01,2.80
2014,02,17,03,02,3.80
2014,02,17,03,03,3.30
2014,02,17,03,04,3.00
2014,02,17,03,05,4.40
2014,02,17,03,06,3.70
2014,02,17,03,07,3.60
2014,02,17,03,08,3.20
2014,02,17,03,09,4.30
2014,02,17,03,10,3.00
2014,02,17,03,11,4.30
2014,02,17,03,12,6.60
2014,02,17,03,13,6.00
2014,02,17,03,14,5.80
2014,02,17,03,15,5.30
2014,02,17,03,16,5.20
2014,02,17,03,17,2.80
2014,02,17,03,18,3.20
2014,02,17,03,19,6.90
2014,02,17,03,20,3.90
2014,02,17,03,21,4.00
2014,02,17,03,22,5.10
2014,02,17,03,23,3.90
2014,02,17,03,24,2.50
2014,02,17,03,25,2.70
2014,02,17,03,26,3.70
2014,02,17,03,27,2.20
2014,02,17,03,28,3.70
2014,02,17,03,29,6.40
2014,02,17,03,30,8.00
2014,02,17,03,31,8.90
2014,02,17,03,32,7.90
2014,02,17,03,33,7.50
2014,02,17,03,34,8.70
2014,02,17,03,35,9.80
2014,02,17,03,36,6.90
2014,02,17,03,37,7.70
2014,02,17,03,38,2.30
2014,02,17,03,39,6.90
2014,02,17,03,40,8.20
2014,02,17,03,41,6.30
2014,02,17,03,42,8.10
2014,02,17,03,43,6.70
2014,02,17,03,44,5.00
2014,02,17,03,45,7.60
2014,02,17,03,46,8.70
2014,02,17,03,47,5.60
2014,02,17,03,48,6.60
2014,02,17,03,49,6.70
2014,02,17,03,50,3.10
2014,02,17,03,51,9.30
2014,02,17,03,52,5.60
2014,02,17,03,53,4.00
2014,02,17,03,54,4.80
2014,02,17,03,55,7.00
2014,02,17,03,56,5.20
2014,02,17,03,57,3.60
2014,02,17,03,58,2.20
2014,02,17,03,59,3.10
2014,02,17,04,00,5.60
2014,02,17,04,01,2.50
2014,02,17,04,02,4.10
2014,02,17,04,03,2.90
2014,02,17,04,04,2.20
2014,02,17,04,05,2.20
2014,02,17,04,06,3.90
2014,02,17,04,07,2.70
2014,02,17,04,08,1.90
2014,02,17,04,09,2.40
2014,02,17,04,10,6.10
2014,02,17,04,11,2.50
2014,02,17,04,12,3.20
2014,02,17,04,13,5.30
2014,02,17,04,14,0.70
2014,02,17,04,15,2.20
2014,02,17,04,16,2.60
2014,02,17,04,17,5.00
2014,02,17,04,18,7.50
2014,02,17,04,19,7.30
2014,02,17,04,20,3.90
2014,02,17,04,21,7.10
2014,02,17,04,22,8.60
2014,02,17,04,23,3.30
2014,02,17,04,24,4.60
2014,02,17,04,25,3.70
2014,02,17,04,26,3.90
2014,02,17,04,27,4.60
2014,02,17,04,28,2.30
2014,02,17,04,29,4.80
2014,02,17,04,30,1.40
2014,02,17,04,31,1.40
2014,02,17,04,32,1.30
2014,02,17,04,33,1.90
2014,02,17,04,34,2.50
2014,02,17,04,35,2.80
2014,02,17,04,36,0.70
2014,02,17,04,37,0.20
2014,02,17,04,38,1.90
2014,02,17,04,39,2.80
2014,02,17,04,40,2.60
2014,02,17,04,41,1.10
2014,02,17,04,42,1.40
2014,02,17,04,43,0.50
2014,02,17,04,44,0.70
2014,02,17,04,45,1.30
2014,02,17,04,46,1.80
2014,02,17,04,47,0.20
2014,02,17,04,48,0.70
2014,02,17,04,49,1.70
2014,02,17,04,50,4.00
2014,02,17,04,51,11.00
2014,02,17,04,52,10.50
2014,02,17,04,53,9.60
2014,02,17,04,54,10.10
2014,02,17,04,55,6.70
2014,02,17,04,56,2.80
2014,02,17,04,57,5.90
2014,02,17,04,58,1.60
2014,02,17,04,59,3.10
2014,02,17,05,00,8.80
2014,02,17,05,01,4.30
2014,02,17,05,02,7.00
2014,02,17,05,03,5.30
2014,02,17,05,04,6.60
2014,02,17,05,05,6.50
2014,02,17,05,06,7.90
2014,02,17,05,07,4.90
2014,02,17,05,08,4.10
2014,02,17,05,09,6.20
2014,02,17,05,10,2.90
2014,02,17,05,11,4.20
2014,02,17,05,12,2.20
2014,02,17,05,13,7.10
2014,02,17,05,14,4.00
2014,02,17,05,15,0.90
2014,02,17,05,16,2.30
2014,02,17,05,17,2.70
2014,02,17,05,18,1.60
2014,02,17,05,19,1.80
2014,02,17,05,20,2.50
2014,02,17,05,21,2.30
2014,02,17,05,22,0.30
2014,02,17,05,23,0.90
2014,02,17,05,24,0.20
2014,02,17,05,25,0.40
2014,02,17,05,26,0.20
2014,02,17,05,27,1.00
2014,02,17,05,28,3.00
2014,02,17,05,29,0.10
2014,02,17,05,30,0.70
2014,02,17,05,31,0.00
2014,02,17,05,32,0.00
2014,02,17,05,33,0.00
2014,02,17,05,34,0.00
2014,02,17,05,35,0.00
2014,02,17,05,36,0.80
2014,02,17,05,37,0.50
2014,02,17,05,38,0.00
2014,02,17,05,39,1.30
2014,02,17,05,40,1.40
2014,02,17,05,41,0.00
2014,02,17,05,42,0.00
2014,02,17,05,43,0.00
2014,02,17,05,44,1.00
2014,02,17,05,45,0.30
2014,02,17,05,46,1.00
2014,02,17,05,47,1.70
2014,02,17,05,48,0.80
2014,02,17,05,49,0.20
2014,02,17,05,50,0.30
2014,02,17,05,51,0.20
2014,02,17,05,52,0.00
2014,02,17,05,53,0.50
2014,02,17,05,54,2.00
2014,02,17,05,55,3.80
2014,02,17,05,56,4.30
2014,02,17,05,57,1.50
2014,02,17,05,58,0.60
2014,02,17,05,59,0.40
2014,02,17,06,00,0.00
2014,02,17,06,01,0.00
2014,02,17,06,02,0.00
2014,02,17,06,03,0.00
2014,02,17,06,04,0.00
2014,02,17,06,05,0.00
2014,02,17,06,06,0.00
2014,02,17,06,07,0.00
2014,02,17,06,08,0.00
2014,02,17,06,09,0.00
2014,02,17,06,10,0.00
2014,02,17,06,11,0.00
2014,02,17,06,12,0.00
2014,02,17,06,13,0.00
2014,02,17,06,14,0.00
2014,02,17,06,15,0.00
2014,02,17,06,16,0.00
2014,02,17,06,17,0.00
2014,02,17,06,18,0.00
2014,02,17,06,19,0.00
2014,02,17,06,20,0.70
2014,02,17,06,21,1.90
2014,02,17,06,22,2.50
2014,02,17,06,23,0.00
2014,02,17,06,24,0.00
2014,02,17,06,25,0.00
2014,02,17,06,26,0.00
2014,02,17,06,27,0.00
2014,02,17,06,28,0.00
2014,02,17,06,29,0.00
2014,02,17,06,30,0.00
2014,02,17,06,31,0.00
2014,02,17,06,32,0.00
2014,02,17,06,33,0.00
2014,02,17,06,34,0.00
2014,02,17,06,35,0.00
2014,02,17,06,36,0.00
2014,02,17,06,37,0.00
2014,02,17,06,38,0.00
2014,02,17,06,39,0.00
2014,02,17,06,40,0.60
2014,02,17,06,41,0.50
2014,02,17,06,42,0.30
2014,02,17,06,43,0.10
2014,02,17,06,44,0.00
2014,02,17,06,45,0.00
2014,02,17,06,46,0.00
2014,02,17,06,47,0.10
2014,02,17,06,48,0.00
2014,02,17,06,49,0.00
2014,02,17,06,50,0.10
2014,02,17,06,51,0.50
2014,02,17,06,52,0.10
2014,02,17,06,53,0.00
2014,02,17,06,54,0.00
2014,02,17,06,55,0.00
2014,02,17,06,56,0.00
2014,02,17,06,57,0.00
2014,02,17,06,58,0.00
2014,02,17,06,59,0.20
2014,02,17,07,00,0.00
2014,02,17,07,01,0.00
2014,02,17,07,02,0.10
2014,02,17,07,03,0.00
2014,02,17,07,04,0.00
2014,02,17,07,05,0.00
2014,02,17,07,06,0.00
2014,02,17,07,07,0.00
2014,02,17,07,08,0.00
2014,02,17,07,09,0.00
2014,02,17,07,10,0.00
2014,02,17,07,11,0.00
2014,02,17,07,12,0.10
2014,02,17,07,13,0.00
2014,02,17,07,14,0.00
2014,02,17,07,15,0.00
2014,02,17,07,16,0.00
2014,02,17,07,17,0.00
2014,02,17,07,18,0.60
2014,02,17,07,19,2.90
2014,02,17,07,20,0.70
2014,02,17,07,21,0.00
2014,02,17,07,22,0.00
2014,02,17,07,23,0.00
2014,02,17,07,24,0.00
2014,02,17,07,25,0.00
2014,02,17,07,26,0.00
2014,02,17,07,27,0.00
2014,02,17,07,28,0.00
2014,02,17,07,29,0.00
2014,02,17,07,30,0.10
2014,02,17,07,31,0.30
2014,02,17,07,32,0.00
2014,02,17,07,33,0.00
2014,02,17,07,34,0.00
2014,02,17,07,35,0.10
2014,02,17,07,36,0.00
2014,02,17,07,37,1.40
2014,02,17,07,38,2.40
2014,02,17,07,39,3.10
2014,02,17,07,40,6.80
2014,02,17,07,41,3.70
2014,02,17,07,42,0.00
2014,02,17,07,43,0.40
2014,02,17,07,44,0.30
2014,02,17,07,45,2.10
2014,02,17,07,46,0.60
2014,02,17,07,47,0.00
2014,02,17,07,48,0.00
2014,02,17,07,49,0.00
2014,02,17,07,50,0.10
2014,02,17,07,51,1.10
2014,02,17,07,52,0.60
2014,02,17,07,53,1.90
2014,02,17,07,54,1.20
2014,02,17,07,55,0.30
2014,02,17,07,56,0.20
2014,02,17,07,57,1.40
2014,02,17,07,58,0.20
2014,02,17,07,59,1.80
2014,02,17,08,00,0.10
2014,02,17,08,01,1.50
2014,02,17,08,02,0.10
2014,02,17,08,03,0.20
2014,02,17,08,04,0.20
2014,02,17,08,05,0.00
2014,02,17,08,06,0.00
2014,02,17,08,07,0.00
2014,02,17,08,08,0.00
2014,02,17,08,09,0.00
2014,02,17,08,10,0.00
2014,02,17,08,11,0.00
2014,02,17,08,12,0.00
2014,02,17,08,13,0.00
2014,02,17,08,14,0.00
2014,02,17,08,15,0.00
2014,02,17,08,16,0.20
2014,02,17,08,17,0.00
2014,02,17,08,18,0.00
2014,02,17,08,19,0.00
2014,02,17,08,20,0.00
2014,02,17,08,21,0.00
2014,02,17,08,22,0.00
2014,02,17,08,23,0.00
2014,02,17,08,24,0.00
2014,02,17,08,25,0.00
2014,02,17,08,26,0.00
2014,02,17,08,27,0.00
2014,02,17,08,28,1.40
2014,02,17,08,29,0.20
2014,02,17,08,30,0.00
2014,02,17,08,31,1.10
2014,02,17,08,32,2.50
2014,02,17,08,33,2.60
2014,02,17,08,34,1.50
2014,02,17,08,35,0.40
2014,02,17,08,36,0.60
2014,02,17,08,37,0.00
2014,02,17,08,38,1.70
2014,02,17,08,39,0.50
2014,02,17,08,40,0.10
2014,02,17,08,41,1.30
2014,02,17,08,42,0.90
2014,02,17,08,43,0.10
2014,02,17,08,44,0.00
2014,02,17,08,45,0.70
2014,02,17,08,46,0.80
2014,02,17,08,47,0.80
2014,02,17,08,48,0.00
2014,02,17,08,49,0.00
2014,02,17,08,50,0.00
2014,02,17,08,51,0.00
2014,02,17,08,52,0.00
2014,02,17,08,53,0.00
2014,02,17,08,54,0.00
2014,02,17,08,55,0.00
2014,02,17,08,56,0.00
2014,02,17,08,57,0.90
2014,02,17,08,58,1.60
2014,02,17,08,59,1.60
2014,02,17,09,00,1.70
2014,02,17,09,01,0.20
2014,02,17,09,02,0.10
2014,02,17,09,03,0.00
2014,02,17,09,04,0.00
2014,02,17,09,05,0.60
2014,02,17,09,06,0.70
2014,02,17,09,07,0.00
2014,02,17,09,08,1.40
2014,02,17,09,09,3.90
2014,02,17,09,10,2.20
2014,02,17,09,11,2.90
2014,02,17,09,12,1.80
2014,02,17,09,13,3.90
2014,02,17,09,14,1.20
2014,02,17,09,15,2.50
2014,02,17,09,16,2.90
2014,02,17,09,17,2.50
2014,02,17,09,18,2.10
2014,02,17,09,19,1.50
2014,02,17,09,20,1.70
2014,02,17,09,21,4.10
2014,02,17,09,22,0.40
2014,02,17,09,23,0.10
2014,02,17,09,24,2.50
2014,02,17,09,25,4.20
2014,02,17,09,26,3.10
2014,02,17,09,27,2.00
2014,02,17,09,28,3.90
2014,02,17,09,29,6.80
2014,02,17,09,30,7.10
2014,02,17,09,31,5.80
2014,02,17,09,32,8.00
2014,02,17,09,33,6.50
2014,02,17,09,34,8.90
2014,02,17,09,35,6.60
2014,02,17,09,36,4.70
2014,02,17,09,37,4.30
2014,02,17,09,38,7.60
2014,02,17,09,39,4.60
2014,02,17,09,40,6.40
2014,02,17,09,41,3.40
2014,02,17,09,42,5.40
2014,02,17,09,43,2.60
2014,02,17,09,44,3.40
2014,02,17,09,45,3.30
2014,02,17,09,46,2.20
2014,02,17,09,47,3.60
2014,02,17,09,48,6.10
2014,02,17,09,49,4.50
2014,02,17,09,50,2.30
2014,02,17,09,51,4.00
2014,02,17,09,52,7.20
2014,02,17,09,53,3.30
2014,02,17,09,54,3.80
2014,02,17,09,55,3.50
2014,02,17,09,56,5.20
2014,02,17,09,57,4.30
2014,02,17,09,58,1.60
2014,02,17,09,59,0.00
2014,02,17,10,00,1.50
2014,02,17,10,01,2.00
2014,02,17,10,02,2.10
2014,02,17,10,03,0.30
2014,02,17,10,04,1.90
2014,02,17,10,05,2.90
2014,02,17,10,06,5.30
2014,02,17,10,07,4.20
2014,02,17,10,08,2.60
2014,02,17,10,09,1.40
2014,02,17,10,10,10.90
2014,02,17,10,11,8.40
2014,02,17,10,12,5.20
2014,02,17,10,13,4.50
2014,02,17,10,14,3.90
2014,02,17,10,15,3.50
2014,02,17,10,16,0.30
2014,02,17,10,17,1.90
2014,02,17,10,18,1.10
2014,02,17,10,19,1.80
2014,02,17,10,20,6.20
2014,02,17,10,21,6.00
2014,02,17,10,22,6.40
2014,02,17,10,23,5.10
2014,02,17,10,24,2.30
2014,02,17,10,25,4.20
2014,02,17,10,26,8.30
2014,02,17,10,27,6.40
2014,02,17,10,28,3.80
2014,02,17,10,29,4.20
2014,02,17,10,30,4.30
2014,02,17,10,31,3.10
2014,02,17,10,32,2.70
2014,02,17,10,33,6.10
2014,02,17,10,34,2.00
2014,02,17,10,35,6.00
2014,02,17,10,36,5.00
2014,02,17,10,37,4.50
2014,02,17,10,38,11.20
2014,02,17,10,39,7.30
2014,02,17,10,40,4.20
2014,02,17,10,41,7.60
2014,02,17,10,42,6.70
2014,02,17,10,43,5.40
2014,02,17,10,44,2.70
2014,02,17,10,45,7.30
2014,02,17,10,46,8.20
2014,02,17,10,47,10.20
2014,02,17,10,48,6.30
2014,02,17,10,49,7.60
2014,02,17,10,50,7.10
2014,02,17,10,51,9.40
2014,02,17,10,52,9.30
2014,02,17,10,53,9.40
2014,02,17,10,54,11.40
2014,02,17,10,55,13.40
2014,02,17,10,56,8.70
2014,02,17,10,57,5.90
2014,02,17,10,58,8.20
2014,02,17,10,59,6.00
2014,02,17,11,00,5.70
2014,02,17,11,01,6.70
2014,02,17,11,02,8.20
2014,02,17,11,03,8.90
2014,02,17,11,04,7.60
2014,02,17,11,05,9.70
2014,02,17,11,06,10.90
2014,02,17,11,07,9.20
2014,02,17,11,08,8.20
2014,02,17,11,09,7.20
2014,02,17,11,10,9.10
2014,02,17,11,11,6.70
2014,02,17,11,12,2.70
2014,02,17,11,13,3.60
2014,02,17,11,14,3.10
2014,02,17,11,15,5.10
2014,02,17,11,16,5.10
2014,02,17,11,17,3.30
2014,02,17,11,18,2.80
2014,02,17,11,19,2.40
2014,02,17,11,20,3.10
2014,02,17,11,21,5.90
2014,02,17,11,22,4.10
2014,02,17,11,23,2.30
2014,02,17,11,24,1.30
2014,02,17,11,25,2.50
2014,02,17,11,26,4.30
2014,02,17,11,27,3.20
2014,02,17,11,28,5.60
2014,02,17,11,29,4.00
2014,02,17,11,30,2.10
2014,02,17,11,31,1.60
2014,02,17,11,32,2.30
2014,02,17,11,33,4.80
2014,02,17,11,34,1.50
2014,02,17,11,35,5.80
2014,02,17,11,36,4.70
2014,02,17,11,37,5.30
2014,02,17,11,38,7.10
2014,02,17,11,39,4.70
2014,02,17,11,40,3.20
2014,02,17,11,41,5.60
2014,02,17,11,42,3.50
2014,02,17,11,43,1.10
2014,02,17,11,44,3.50
2014,02,17,11,45,1.40
2014,02,17,11,46,2.50
2014,02,17,11,47,8.10
2014,02,17,11,48,4.60
2014,02,17,11,49,6.20
2014,02,17,11,50,8.10
2014,02,17,11,51,9.70
2014,02,17,11,52,7.00
2014,02,17,11,53,9.00
2014,02,17,11,54,9.70
2014,02,17,11,55,12.40
2014,02,17,11,56,12.40
2014,02,17,11,57,11.60
2014,02,17,11,58,7.60
2014,02,17,11,59,10.30
2014,02,17,12,00,12.60
2014,02,17,12,01,10.50
2014,02,17,12,02,7.10
2014,02,17,12,03,8.80
2014,02,17,12,04,4.30
2014,02,17,12,05,10.20
2014,02,17,12,06,6.10
2014,02,17,12,07,8.20
2014,02,17,12,08,9.70
2014,02,17,12,09,5.80
2014,02,17,12,10,7.20
2014,02,17,12,11,11.00
2014,02,17,12,12,7.20
2014,02,17,12,13,7.80
2014,02,17,12,14,11.70
2014,02,17,12,15,6.50
2014,02,17,12,16,5.30
2014,02,17,12,17,6.50
2014,02,17,12,18,6.10
2014,02,17,12,19,5.90
2014,02,17,12,20,8.20
2014,02,17,12,21,10.60
2014,02,17,12,22,8.00
2014,02,17,12,23,11.80
2014,02,17,12,24,11.00
2014,02,17,12,25,10.50
2014,02,17,12,26,8.90
2014,02,17,12,27,10.90
2014,02,17,12,28,5.60
2014,02,17,12,29,11.40
2014,02,17,12,30,11.10
2014,02,17,12,31,18.70
2014,02,17,12,32,13.50
2014,02,17,12,33,16.30
2014,02,17,12,34,16.20
2014,02,17,12,35,11.80
2014,02,17,12,36,15.30
2014,02,17,12,37,14.60
2014,02,17,12,38,8.90
2014,02,17,12,39,7.80
2014,02,17,12,40,6.70
2014,02,17,12,41,9.50
2014,02,17,12,42,7.70
2014,02,17,12,43,6.80
2014,02,17,12,44,9.50
2014,02,17,12,45,7.90
2014,02,17,12,46,7.90
2014,02,17,12,47,11.40
2014,02,17,12,48,11.80
2014,02,17,12,49,8.90
2014,02,17,12,50,9.70
2014,02,17,12,51,7.10
2014,02,17,12,52,6.40
2014,02,17,12,53,6.40
2014,02,17,12,54,12.90
2014,02,17,12,55,12.60
2014,02,17,12,56,13.50
2014,02,17,12,57,11.30
2014,02,17,12,58,8.70
2014,02,17,12,59,11.10
2014,02,17,13,00,9.40
2014,02,17,13,01,13.80
2014,02,17,13,02,12.00
2014,02,17,13,03,11.90
2014,02,17,13,04,13.50
2014,02,17,13,05,9.70
2014,02,17,13,06,17.50
2014,02,17,13,07,10.10
2014,02,17,13,08,10.20
2014,02,17,13,09,8.80
2014,02,17,13,10,4.50
2014,02,17,13,11,17.10
2014,02,17,13,12,13.40
2014,02,17,13,13,13.60
2014,02,17,13,14,7.70
2014,02,17,13,15,13.80
2014,02,17,13,16,6.10
2014,02,17,13,17,9.30
2014,02,17,13,18,8.80
2014,02,17,13,19,10.80
2014,02,17,13,20,7.80
2014,02,17,13,21,15.60
2014,02,17,13,22,11.80
2014,02,17,13,23,11.40
2014,02,17,13,24,9.30
2014,02,17,13,25,12.00
2014,02,17,13,26,7.60
2014,02,17,13,27,3.60
2014,02,17,13,28,11.10
2014,02,17,13,29,11.50
2014,02,17,13,30,9.10
2014,02,17,13,31,7.50
2014,02,17,13,32,12.60
2014,02,17,13,33,17.40
2014,02,17,13,34,13.40
2014,02,17,13,35,9.20
2014,02,17,13,36,8.40
2014,02,17,13,37,7.10
2014,02,17,13,38,11.30
2014,02,17,13,39,5.60
2014,02,17,13,40,5.00
2014,02,17,13,41,9.60
2014,02,17,13,42,8.50
2014,02,17,13,43,7.80
2014,02,17,13,44,13.50
2014,02,17,13,45,11.90
2014,02,17,13,46,9.20
2014,02,17,13,47,12.70
2014,02,17,13,48,11.70
2014,02,17,13,49,10.60
2014,02,17,13,50,11.20
2014,02,17,13,51,7.60
2014,02,17,13,52,6.60
2014,02,17,13,53,18.50
2014,02,17,13,54,16.60
2014,02,17,13,55,18.50
2014,02,17,13,56,15.10
2014,02,17,13,57,9.10
2014,02,17,13,58,13.30
2014,02,17,13,59,10.00
2014,02,17,14,00,18.60
2014,02,17,14,01,12.80
2014,02,17,14,02,11.50
2014,02,17,14,03,8.70
2014,02,17,14,04,12.40
2014,02,17,14,05,13.60
2014,02,17,14,06,13.80
2014,02,17,14,07,11.40
2014,02,17,14,08,10.10
2014,02,17,14,09,7.20
2014,02,17,14,10,10.50
2014,02,17,14,11,6.30
2014,02,17,14,12,8.10
2014,02,17,14,13,11.00
2014,02,17,14,14,7.70
2014,02,17,14,15,6.80
2014,02,17,14,16,3.50
2014,02,17,14,17,8.90
2014,02,17,14,18,8.10
2014,02,17,14,19,9.00
2014,02,17,14,20,6.00
2014,02,17,14,21,5.60
2014,02,17,14,22,5.60
2014,02,17,14,23,0.50
2014,02,17,14,24,3.20
2014,02,17,14,25,3.90
2014,02,17,14,26,6.90
2014,02,17,14,27,5.30
2014,02,17,14,28,8.80
2014,02,17,14,29,8.90
2014,02,17,14,30,9.70
2014,02,17,14,31,9.30
2014,02,17,14,32,9.40
2014,02,17,14,33,8.50
2014,02,17,14,34,8.80
2014,02,17,14,35,9.90
2014,02,17,14,36,6.60
2014,02,17,14,37,4.90
2014,02,17,14,38,4.80
2014,02,17,14,39,4.30
2014,02,17,14,40,1.30
2014,02,17,14,41,2.40
2014,02,17,14,42,5.60
2014,02,17,14,43,7.40
2014,02,17,14,44,9.40
2014,02,17,14,45,7.60
2014,02,17,14,46,5.80
2014,02,17,14,47,6.70
2014,02,17,14,48,8.50
2014,02,17,14,49,10.20
2014,02,17,14,50,6.40
2014,02,17,14,51,6.50
2014,02,17,14,52,8.90
2014,02,17,14,53,8.50
2014,02,17,14,54,10.20
2014,02,17,14,55,12.70
2014,02,17,14,56,14.20
2014,02,17,14,57,7.00
2014,02,17,14,58,6.60
2014,02,17,14,59,2.10
2014,02,17,15,00,6.00
2014,02,17,15,01,9.70
2014,02,17,15,02,7.30
2014,02,17,15,03,11.70
2014,02,17,15,04,11.00
2014,02,17,15,05,9.10
2014,02,17,15,06,8.50
2014,02,17,15,07,10.00
2014,02,17,15,08,13.90
2014,02,17,15,09,8.10
2014,02,17,15,10,10.80
2014,02,17,15,11,8.60
2014,02,17,15,12,5.10
2014,02,17,15,13,7.60
2014,02,17,15,14,7.90
2014,02,17,15,15,7.10
2014,02,17,15,16,11.80
2014,02,17,15,17,7.90
2014,02,17,15,18,8.40
2014,02,17,15,19,7.20
2014,02,17,15,20,5.10
2014,02,17,15,21,8.20
2014,02,17,15,22,5.10
2014,02,17,15,23,2.80
2014,02,17,15,24,6.00
2014,02,17,15,25,4.30
2014,02,17,15,26,2.30
2014,02,17,15,27,10.10
2014,02,17,15,28,7.00
2014,02,17,15,29,3.70
2014,02,17,15,30,5.50
2014,02,17,15,31,4.80
2014,02,17,15,32,6.80
2014,02,17,15,33,10.50
2014,02,17,15,34,10.60
2014,02,17,15,35,15.20
2014,02,17,15,36,9.70
2014,02,17,15,37,10.90
2014,02,17,15,38,6.60
2014,02,17,15,39,7.70
2014,02,17,15,40,7.70
2014,02,17,15,41,9.20
2014,02,17,15,42,8.10
2014,02,17,15,43,6.70
2014,02,17,15,44,5.80
2014,02,17,15,45,7.90
2014,02,17,15,46,11.40
2014,02,17,15,47,9.00
2014,02,17,15,48,5.40
2014,02,17,15,49,2.90
2014,02,17,15,50,5.40
2014,02,17,15,51,9.70
2014,02,17,15,52,7.30
2014,02,17,15,53,5.50
2014,02,17,15,54,4.80
2014,02,17,15,55,4.10
2014,02,17,15,56,10.00
2014,02,17,15,57,4.80
2014,02,17,15,58,9.30
2014,02,17,15,59,8.60
2014,02,17,16,00,4.30
2014,02,17,16,01,5.50
2014,02,17,16,02,11.90
2014,02,17,16,03,8.50
2014,02,17,16,04,12.80
2014,02,17,16,05,10.90
2014,02,17,16,06,7.90
2014,02,17,16,07,8.50
2014,02,17,16,08,5.50
2014,02,17,16,09,5.30
2014,02,17,16,10,7.80
2014,02,17,16,11,9.70
2014,02,17,16,12,4.90
2014,02,17,16,13,9.60
2014,02,17,16,14,9.80
2014,02,17,16,15,9.70
2014,02,17,16,16,9.30
2014,02,17,16,17,10.80
2014,02,17,16,18,13.20
2014,02,17,16,19,17.50
2014,02,17,16,20,14.50
2014,02,17,16,21,11.10
2014,02,17,16,22,7.30
2014,02,17,16,23,13.00
2014,02,17,16,24,15.40
2014,02,17,16,25,12.70
2014,02,17,16,26,10.90
2014,02,17,16,27,5.90
2014,02,17,16,28,7.10
2014,02,17,16,29,5.60
2014,02,17,16,30,5.80
2014,02,17,16,31,4.70
2014,02,17,16,32,4.60
2014,02,17,16,33,10.20
2014,02,17,16,34,12.00
2014,02,17,16,35,8.90
2014,02,17,16,36,8.90
2014,02,17,16,37,8.60
2014,02,17,16,38,17.60
2014,02,17,16,39,13.40
2014,02,17,16,40,4.80
2014,02,17,16,41,10.80
2014,02,17,16,42,12.90
2014,02,17,16,43,12.30
2014,02,17,16,44,14.00
2014,02,17,16,45,11.40
2014,02,17,16,46,12.70
2014,02,17,16,47,8.00
2014,02,17,16,48,8.10
2014,02,17,16,49,5.70
2014,02,17,16,50,12.50
2014,02,17,16,51,9.90
2014,02,17,16,52,7.90
2014,02,17,16,53,6.90
2014,02,17,16,54,6.70
2014,02,17,16,55,7.30
2014,02,17,16,56,7.50
2014,02,17,16,57,7.60
2014,02,17,16,58,5.80
2014,02,17,16,59,10.50
2014,02,17,17,00,12.30
2014,02,17,17,01,9.80
2014,02,17,17,02,4.70
2014,02,17,17,03,2.70
2014,02,17,17,04,8.60
2014,02,17,17,05,9.10
2014,02,17,17,06,7.10
2014,02,17,17,07,8.20
2014,02,17,17,08,7.20
2014,02,17,17,09,7.70
2014,02,17,17,10,6.70
2014,02,17,17,11,5.30
2014,02,17,17,12,12.10
2014,02,17,17,13,8.10
2014,02,17,17,14,2.60
2014,02,17,17,15,6.50
2014,02,17,17,16,4.90
2014,02,17,17,17,1.70
2014,02,17,17,18,8.90
2014,02,17,17,19,9.40
2014,02,17,17,20,7.60
2014,02,17,17,21,7.70
2014,02,17,17,22,9.70
2014,02,17,17,23,10.10
2014,02,17,17,24,5.80
2014,02,17,17,25,5.60
2014,02,17,17,26,12.90
2014,02,17,17,27,14.90
2014,02,17,17,28,9.60
2014,02,17,17,29,11.50
2014,02,17,17,30,9.20
2014,02,17,17,31,5.70
2014,02,17,17,32,9.60
2014,02,17,17,33,8.70
2014,02,17,17,34,8.50
2014,02,17,17,35,13.20
2014,02,17,17,36,13.50
2014,02,17,17,37,8.80
2014,02,17,17,38,9.60
2014,02,17,17,39,8.60
2014,02,17,17,40,7.60
2014,02,17,17,41,4.70
2014,02,17,17,42,12.50
2014,02,17,17,43,8.10
2014,02,17,17,44,6.40
2014,02,17,17,45,5.20
2014,02,17,17,46,10.70
2014,02,17,17,47,11.80
2014,02,17,17,48,11.60
2014,02,17,17,49,11.90
2014,02,17,17,50,8.90
2014,02,17,17,51,8.90
2014,02,17,17,52,8.50
2014,02,17,17,53,8.50
2014,02,17,17,54,8.10
2014,02,17,17,55,9.00
2014,02,17,17,56,6.90
2014,02,17,17,57,7.70
2014,02,17,17,58,7.20
2014,02,17,17,59,7.30